START_TIME,STEP,MOV.,M6,t_acc.,M7,t_acc.,M19,t_acc.,H36,t_acc.
1979-07-14 21:00:27.360 ,0,0,0.,12.0,0.,12.0,0.,12.0,0.,12.0
1979-07-14 21:00:39.360 ,0,0,0.,12.0,0.,12.0,0.,12.0,0.,12.0
1979-07-14 21:00:51.360 ,0,1,0.,12.0,0.,12.0,0.,12.0,0.,12.0
1979-07-14 21:01:03.360 ,0,1,0.,12.0,0.,12.0,0.,12.0,0.,12.0
1979-07-14 21:01:15.360 ,0,0,0.,12.0,0.,12.0,0.,12.0,0.,12.0
1979-07-14 21:01:27.360 ,0,0,0.,12.0,0.,12.0,0.,12.0,0.,12.0
1979-07-14 21:01:39.360 ,1,1,0.,12.0,0.,12.0,0.,12.0,0.,12.0
1979-07-14 21:01:51.360 ,1,1,1.,12.0,0.,12.0,0.,12.0,0.,12.0
1979-07-14 21:02:03.360 ,1,0,0.,12.0,0.,12.0,0.,12.0,0.,12.0
1979-07-14 21:02:15.360 ,1,0,1.,12.0,0.,12.0,0.,12.0,0.,12.0
1979-07-14 21:02:27.360 ,2,1,0.,12.0,0.,12.0,0.,12.0,0.,12.0
1979-07-14 21:02:39.360 ,2,1,0.,12.0,0.,12.0,0.,12.0,0.,12.0
1979-07-14 21:02:51.360 ,2,0,0.,12.0,0.,12.0,0.,12.0,0.,12.0
1979-07-14 21:03:03.360 ,2,0,0.,12.0,0.,12.0,0.,12.0,0.,12.0
1979-07-14 21:03:15.360 ,3,1,0.,12.0,0.,12.0,0.,12.0,0.,12.0
1979-07-14 21:03:27.360 ,3,1,0.,12.0,0.,12.0,0.,12.0,0.,12.0
1979-07-14 21:03:39.360 ,3,0,0.,12.0,0.,12.0,0.,12.0,0.,12.0
1979-07-14 21:03:51.360 ,3,0,0.,12.0,0.,12.0,0.,12.0,0.,12.0
1979-07-14 21:04:03.360 ,4,1,0.,12.0,0.,12.0,0.,12.0,0.,12.0
1979-07-14 21:04:15.360 ,4,1,0.,12.0,0.,12.0,0.,12.0,0.,12.0
1979-07-14 21:04:27.360 ,4,0,0.,12.0,0.,12.0,0.,12.0,0.,12.0
1979-07-14 21:04:39.360 ,4,0,0.,12.0,0.,12.0,0.,12.0,0.,12.0
1979-07-14 21:04:51.360 ,5,1,0.,12.0,0.,12.0,0.,12.0,0.,12.0
1979-07-14 21:05:03.360 ,5,1,0.,12.0,0.,12.0,0.,12.0,0.,12.0
1979-07-14 21:05:15.360 ,5,0,0.,12.0,0.,12.0,0.,12.0,0.,12.0
1979-07-14 21:05:27.360 ,5,0,0.,12.0,0.,12.0,0.,12.0,0.,12.0
1979-07-14 21:05:39.360 ,6,1,0.,12.0,0.,12.0,0.,12.0,0.,12.0
1979-07-14 21:05:51.360 ,6,1,0.,12.0,0.,12.0,0.,12.0,0.,12.0
1979-07-14 21:06:03.360 ,6,0,0.,12.0,0.,12.0,0.,12.0,0.,12.0
1979-07-14 21:06:15.360 ,6,0,0.,12.0,0.,12.0,0.,12.0,0.,12.0
1979-07-14 21:06:27.360 ,7,0,0.,12.0,0.,12.0,0.,12.0,0.,12.0
1979-07-14 21:06:39.360 ,7,0,0.,12.0,0.,12.0,0.,12.0,0.,12.0
1979-07-14 21:06:51.360 ,7,0,0.,12.0,0.,12.0,0.,12.0,0.,12.0
1979-07-14 21:07:03.360 ,7,0,0.,12.0,0.,12.0,0.,12.0,0.,12.0
1979-07-14 21:07:15.360 ,4,1,0.,12.0,0.,12.0,0.,12.0,0.,12.0
1979-07-14 21:07:27.360 ,4,1,0.,12.0,0.,12.0,0.,12.0,0.,12.0
1979-07-14 21:07:39.360 ,0,1,1.,12.0,0.,12.0,0.,12.0,0.,12.0
1979-07-14 21:07:51.360 ,0,1,0.,12.0,0.,12.0,0.,12.0,0.,12.0
1979-07-14 21:08:03.360 ,3,1,0.,12.0,0.,12.0,0.,12.0,0.,12.0
1979-07-14 21:08:15.360 ,3,1,0.,12.0,0.,12.0,0.,12.0,0.,12.0
1979-07-14 21:08:27.360 ,7,1,0.,12.0,0.,12.0,0.,12.0,0.,12.0
1979-07-14 21:08:39.360 ,7,1,0.,12.0,0.,12.0,0.,12.0,0.,12.0
1979-07-14 21:08:51.360 ,4,1,0.,12.0,0.,12.0,0.,12.0,0.,12.0
1979-07-14 21:09:03.360 ,4,1,0.,12.0,0.,12.0,0.,12.0,0.,12.0
1979-07-14 21:09:15.360 ,0,1,0.,12.0,0.,12.0,0.,12.0,0.,12.0
1979-07-14 21:09:27.360 ,0,1,0.,12.0,0.,12.0,0.,12.0,0.,12.0
1979-07-14 21:09:39.360 ,3,1,0.,12.0,0.,12.0,0.,12.0,0.,12.0
1979-07-14 21:09:51.360 ,3,1,0.,12.0,0.,12.0,0.,12.0,0.,12.0
1979-07-14 21:10:03.360 ,7,1,0.,12.0,0.,12.0,0.,12.0,0.,12.0
1979-07-14 21:10:15.360 ,7,1,0.,12.0,0.,12.0,0.,12.0,1.,12.0
1979-07-14 21:10:27.360 ,4,1,0.,12.0,0.,12.0,0.,12.0,0.,12.0
1979-07-14 21:10:39.360 ,4,1,0.,12.0,0.,12.0,0.,12.0,0.,12.0
1979-07-14 21:10:51.360 ,0,1,0.,12.0,0.,12.0,0.,12.0,0.,12.0
1979-07-14 21:11:03.360 ,0,1,0.,12.0,0.,12.0,0.,12.0,0.,12.0
1979-07-14 21:11:15.360 ,3,1,0.,12.0,0.,12.0,0.,12.0,0.,12.0
1979-07-14 21:11:27.360 ,3,1,0.,12.0,0.,12.0,0.,12.0,0.,12.0
1979-07-14 21:11:39.360 ,7,1,0.,12.0,0.,12.0,0.,12.0,0.,12.0
1979-07-14 21:11:51.360 ,7,1,0.,12.0,0.,12.0,0.,12.0,0.,12.0
1979-07-14 21:12:03.360 ,4,1,0.,12.0,0.,12.0,0.,12.0,0.,12.0
1979-07-14 21:12:15.360 ,4,1,0.,12.0,0.,12.0,0.,12.0,0.,12.0
1979-07-14 21:12:27.360 ,0,1,0.,12.0,0.,12.0,0.,12.0,0.,12.0
1979-07-14 21:12:39.360 ,0,1,0.,12.0,0.,12.0,0.,12.0,0.,12.0
1979-07-14 21:13:39.360 ,0,0,0.,12.0,0.,12.0,0.,12.0,0.,12.0
1979-07-14 21:13:51.360 ,0,0,0.,12.0,0.,12.0,0.,12.0,0.,12.0
1979-07-14 21:14:03.360 ,0,1,0.,12.0,0.,12.0,0.,12.0,0.,12.0
1979-07-14 21:14:15.360 ,0,1,0.,12.0,0.,12.0,0.,12.0,0.,12.0
1979-07-14 21:14:27.360 ,3,1,0.,12.0,0.,12.0,0.,12.0,0.,12.0
1979-07-14 21:14:39.360 ,3,1,0.,12.0,0.,12.0,0.,12.0,0.,12.0
1979-07-14 21:14:51.360 ,7,1,0.,12.0,0.,12.0,0.,12.0,0.,12.0
1979-07-14 21:15:03.360 ,7,1,0.,12.0,0.,12.0,0.,12.0,0.,12.0
1979-07-14 21:15:15.360 ,4,1,0.,12.0,0.,12.0,0.,12.0,0.,12.0
1979-07-14 21:15:27.360 ,4,1,2.,12.0,0.,12.0,0.,12.0,0.,12.0
1979-07-14 21:15:39.360 ,0,1,0.,12.0,0.,12.0,0.,12.0,0.,12.0
1979-07-14 21:15:51.360 ,0,1,0.,12.0,0.,12.0,0.,12.0,0.,12.0
1979-07-14 21:16:03.360 ,3,1,0.,12.0,0.,12.0,0.,12.0,0.,12.0
1979-07-14 21:16:15.360 ,3,1,0.,12.0,0.,12.0,0.,12.0,0.,12.0
1979-07-14 21:16:27.360 ,7,1,0.,12.0,0.,12.0,0.,12.0,0.,12.0
1979-07-14 21:16:39.360 ,7,1,0.,12.0,0.,12.0,0.,12.0,0.,12.0
1979-07-14 21:16:51.360 ,4,1,0.,12.0,0.,12.0,0.,12.0,0.,12.0
1979-07-14 21:17:03.360 ,4,1,0.,12.0,0.,12.0,0.,12.0,0.,12.0
1979-07-14 21:17:15.360 ,0,1,0.,12.0,0.,12.0,0.,12.0,0.,12.0
1979-07-14 21:17:27.360 ,0,1,0.,12.0,0.,12.0,0.,12.0,0.,12.0
1979-07-14 21:17:39.360 ,0,0,0.,12.0,0.,12.0,0.,12.0,0.,12.0
1979-07-14 21:17:51.360 ,0,0,0.,12.0,0.,12.0,0.,12.0,0.,12.0
1979-07-14 21:18:03.360 ,0,0,0.,12.0,0.,12.0,0.,12.0,0.,12.0
1979-07-14 21:18:15.360 ,0,0,0.,12.0,0.,12.0,0.,12.0,0.,12.0
1979-07-14 21:18:27.350 ,5,1,0.,12.0,0.,12.0,0.,12.0,0.,12.0
1979-07-14 21:18:39.350 ,5,1,0.,12.0,0.,12.0,0.,12.0,0.,12.0
1979-07-14 21:18:51.350 ,5,0,0.,12.0,0.,12.0,0.,12.0,0.,12.0
1979-07-14 21:19:03.350 ,5,0,1.,12.0,0.,12.0,0.,12.0,0.,12.0
1979-07-14 21:19:15.350 ,4,1,0.,12.0,0.,12.0,0.,12.0,0.,12.0
1979-07-14 21:19:27.350 ,4,1,0.,12.0,0.,12.0,0.,12.0,0.,12.0
1979-07-14 21:19:39.350 ,4,0,0.,12.0,0.,12.0,0.,12.0,0.,12.0
1979-07-14 21:19:51.350 ,4,0,1.,12.0,0.,12.0,0.,12.0,0.,12.0
1979-07-14 21:20:03.350 ,3,1,0.,12.0,0.,12.0,0.,12.0,0.,12.0
1979-07-14 21:20:15.350 ,3,1,0.,12.0,0.,12.0,0.,12.0,0.,12.0
1979-07-14 21:20:27.350 ,3,0,0.,12.0,0.,12.0,0.,12.0,0.,12.0
1979-07-14 21:20:39.350 ,3,0,0.,12.0,0.,12.0,0.,12.0,0.,12.0
1979-07-14 21:20:51.350 ,2,1,0.,12.0,0.,12.0,0.,12.0,0.,12.0
1979-07-14 21:21:03.350 ,2,1,0.,12.0,0.,12.0,0.,12.0,0.,12.0
1979-07-14 21:21:15.350 ,2,0,0.,12.0,0.,12.0,0.,12.0,0.,12.0
1979-07-14 21:21:27.350 ,2,0,0.,12.0,0.,12.0,0.,12.0,0.,12.0
1979-07-14 21:21:39.350 ,1,1,0.,12.0,0.,12.0,0.,12.0,0.,12.0
1979-07-14 21:21:51.350 ,1,1,0.,12.0,0.,12.0,0.,12.0,0.,12.0
1979-07-14 21:22:03.350 ,1,0,0.,12.0,0.,12.0,0.,12.0,0.,12.0
1979-07-14 21:22:15.350 ,1,0,0.,12.0,0.,12.0,0.,12.0,0.,12.0
1979-07-14 21:22:27.350 ,0,1,0.,12.0,0.,12.0,0.,12.0,0.,12.0
1979-07-14 21:22:39.350 ,0,1,0.,12.0,0.,12.0,0.,12.0,0.,12.0
1979-07-14 21:22:51.350 ,0,0,0.,12.0,0.,12.0,0.,12.0,0.,12.0
1979-07-14 21:23:03.350 ,0,0,0.,12.0,0.,12.0,0.,12.0,0.,12.0
1979-07-14 21:23:15.350 ,0,1,0.,12.0,0.,12.0,0.,12.0,0.,12.0
1979-07-14 21:23:27.350 ,0,1,0.,12.0,0.,12.0,0.,12.0,0.,12.0
1979-07-14 21:23:39.350 ,0,0,0.,12.0,0.,12.0,0.,12.0,0.,12.0
1979-07-14 21:23:51.350 ,0,0,0.,12.0,0.,12.0,0.,12.0,0.,12.0
1979-07-14 21:24:03.350 ,1,1,0.,12.0,0.,12.0,0.,12.0,0.,12.0
1979-07-14 21:24:15.350 ,1,1,0.,12.0,0.,12.0,0.,12.0,0.,12.0
1979-07-14 21:24:27.350 ,1,0,0.,12.0,0.,12.0,0.,12.0,0.,12.0
1979-07-14 21:24:39.350 ,1,0,0.,12.0,0.,12.0,0.,12.0,0.,12.0
1979-07-14 21:24:51.350 ,2,1,0.,12.0,0.,12.0,0.,12.0,0.,12.0
1979-07-14 21:25:03.350 ,2,1,0.,12.0,0.,12.0,0.,12.0,0.,12.0
1979-07-14 21:25:15.350 ,2,0,0.,12.0,0.,12.0,0.,12.0,0.,12.0
1979-07-14 21:25:27.350 ,2,0,0.,12.0,0.,12.0,0.,12.0,0.,12.0
1979-07-14 21:25:39.350 ,3,1,0.,12.0,0.,12.0,0.,12.0,0.,12.0
1979-07-14 21:25:51.350 ,3,1,0.,12.0,0.,12.0,0.,12.0,0.,12.0
1979-07-14 21:26:03.350 ,3,0,0.,12.0,0.,12.0,0.,12.0,0.,12.0
1979-07-14 21:26:15.350 ,3,0,0.,12.0,0.,12.0,0.,12.0,0.,12.0
1979-07-14 21:26:27.350 ,4,1,0.,12.0,0.,12.0,0.,12.0,0.,12.0
1979-07-14 21:26:39.350 ,4,1,0.,12.0,0.,12.0,0.,12.0,0.,12.0
1979-07-14 21:26:51.350 ,4,0,0.,12.0,0.,12.0,0.,12.0,0.,12.0
1979-07-14 21:27:03.350 ,4,0,1.,12.0,0.,12.0,0.,12.0,0.,12.0
1979-07-14 21:27:15.350 ,5,1,0.,12.0,0.,12.0,0.,12.0,0.,12.0
1979-07-14 21:27:27.350 ,5,1,0.,12.0,0.,12.0,0.,12.0,0.,12.0
1979-07-14 21:27:39.350 ,5,0,0.,12.0,0.,12.0,0.,12.0,0.,12.0
1979-07-14 21:27:51.350 ,5,0,0.,12.0,0.,12.0,0.,12.0,0.,12.0
1979-07-14 21:28:03.350 ,6,1,0.,12.0,0.,12.0,0.,12.0,0.,12.0
1979-07-14 21:28:15.350 ,6,1,0.,12.0,0.,12.0,0.,12.0,0.,12.0
1979-07-14 21:28:27.350 ,6,0,0.,12.0,0.,12.0,0.,12.0,0.,12.0
1979-07-14 21:28:39.350 ,6,0,0.,12.0,0.,12.0,0.,12.0,0.,12.0
1979-07-14 21:28:51.350 ,7,1,0.,12.0,0.,12.0,0.,12.0,0.,12.0
1979-07-14 21:29:03.350 ,7,1,0.,12.0,0.,12.0,0.,12.0,0.,12.0
1979-07-14 21:29:15.350 ,7,0,0.,12.0,0.,12.0,0.,12.0,0.,12.0
1979-07-14 21:29:27.350 ,7,0,0.,12.0,0.,12.0,0.,12.0,0.,12.0
1979-07-14 21:29:39.350 ,7,1,0.,12.0,0.,12.0,0.,12.0,0.,12.0
1979-07-14 21:29:51.350 ,7,1,0.,12.0,0.,12.0,0.,12.0,0.,12.0
1979-07-14 21:30:03.350 ,7,0,0.,12.0,0.,12.0,0.,12.0,0.,12.0
1979-07-14 21:30:15.350 ,7,0,0.,12.0,0.,12.0,0.,12.0,0.,12.0
1979-07-14 21:31:15.350 ,0,0,0.,12.0,0.,12.0,0.,12.0,0.,12.0
1979-07-14 21:31:27.350 ,0,0,0.,12.0,0.,12.0,0.,12.0,1.,12.0
1979-07-14 21:31:39.350 ,0,0,0.,12.0,0.,12.0,0.,12.0,0.,12.0
1979-07-14 21:31:51.350 ,0,0,0.,12.0,0.,12.0,0.,12.0,0.,12.0
1979-07-14 21:32:03.350 ,4,1,0.,12.0,0.,12.0,0.,12.0,0.,12.0
1979-07-14 21:32:15.350 ,4,1,0.,12.0,0.,12.0,0.,12.0,0.,12.0
1979-07-14 21:32:27.350 ,4,0,0.,12.0,0.,12.0,0.,12.0,0.,12.0
1979-07-14 21:32:39.350 ,4,0,1.,12.0,0.,12.0,0.,12.0,0.,12.0
1979-07-14 21:32:51.350 ,3,1,0.,12.0,0.,12.0,0.,12.0,0.,12.0
1979-07-14 21:33:03.350 ,3,1,1.,12.0,0.,12.0,0.,12.0,0.,12.0
1979-07-14 21:33:15.350 ,3,0,0.,12.0,0.,12.0,0.,12.0,0.,12.0
1979-07-14 21:33:27.350 ,3,0,0.,12.0,0.,12.0,0.,12.0,0.,12.0
1979-07-14 21:33:39.350 ,2,1,0.,12.0,0.,12.0,0.,12.0,0.,12.0
1979-07-14 21:33:51.350 ,2,1,0.,12.0,0.,12.0,0.,12.0,0.,12.0
1979-07-14 21:34:03.350 ,2,0,0.,12.0,0.,12.0,0.,12.0,0.,12.0
1979-07-14 21:34:15.350 ,2,0,0.,12.0,0.,12.0,0.,12.0,0.,12.0
1979-07-14 21:34:27.350 ,1,1,0.,12.0,0.,12.0,0.,12.0,0.,12.0
1979-07-14 21:34:39.350 ,1,1,0.,12.0,0.,12.0,0.,12.0,0.,12.0
1979-07-14 21:34:51.350 ,1,0,0.,12.0,0.,12.0,0.,12.0,0.,12.0
1979-07-14 21:35:03.350 ,1,0,0.,12.0,0.,12.0,0.,12.0,0.,12.0
1979-07-14 21:35:15.350 ,0,1,0.,12.0,0.,12.0,0.,12.0,0.,12.0
1979-07-14 21:35:27.350 ,0,1,0.,12.0,0.,12.0,0.,12.0,0.,12.0
1979-07-14 21:35:39.350 ,0,0,0.,12.0,0.,12.0,0.,12.0,0.,12.0
1979-07-14 21:35:51.350 ,0,0,0.,12.0,0.,12.0,0.,12.0,0.,12.0
1979-07-14 21:36:03.350 ,0,1,0.,12.0,0.,12.0,0.,12.0,0.,12.0
1979-07-14 21:36:15.350 ,0,1,0.,12.0,0.,12.0,0.,12.0,0.,12.0
1979-07-14 21:36:27.350 ,0,0,0.,12.0,0.,12.0,0.,12.0,0.,12.0
1979-07-14 21:36:39.350 ,0,0,0.,12.0,0.,12.0,0.,12.0,0.,12.0
1979-07-14 21:36:51.350 ,1,1,0.,12.0,0.,12.0,0.,12.0,0.,12.0
1979-07-14 21:37:03.350 ,1,1,0.,12.0,0.,12.0,0.,12.0,0.,12.0
1979-07-14 21:37:15.350 ,1,0,1.,12.0,0.,12.0,0.,12.0,0.,12.0
1979-07-14 21:37:27.350 ,1,0,0.,12.0,0.,12.0,0.,12.0,0.,12.0
1979-07-14 21:37:39.350 ,2,1,1.,12.0,0.,12.0,0.,12.0,0.,12.0
1979-07-14 21:37:51.350 ,2,1,0.,12.0,0.,12.0,0.,12.0,0.,12.0
1979-07-14 21:38:03.350 ,2,0,0.,12.0,0.,12.0,0.,12.0,0.,12.0
1979-07-14 21:38:15.350 ,2,0,0.,12.0,0.,12.0,0.,12.0,0.,12.0
1979-07-14 21:38:27.350 ,3,1,0.,12.0,0.,12.0,0.,12.0,0.,12.0
1979-07-14 21:38:39.350 ,3,1,0.,12.0,0.,12.0,0.,12.0,0.,12.0
1979-07-14 21:38:51.350 ,3,0,0.,12.0,0.,12.0,0.,12.0,0.,12.0
1979-07-14 21:39:03.350 ,3,0,0.,12.0,0.,12.0,0.,12.0,0.,12.0
1979-07-14 21:39:15.350 ,4,1,0.,12.0,0.,12.0,0.,12.0,0.,12.0
1979-07-14 21:39:27.350 ,4,1,0.,12.0,0.,12.0,0.,12.0,0.,12.0
1979-07-14 21:39:39.350 ,4,0,0.,12.0,0.,12.0,0.,12.0,0.,12.0
1979-07-14 21:39:51.350 ,4,0,0.,12.0,0.,12.0,0.,12.0,0.,12.0
1979-07-14 21:40:03.350 ,5,1,0.,12.0,0.,12.0,0.,12.0,0.,12.0
1979-07-14 21:40:15.350 ,5,1,0.,12.0,0.,12.0,0.,12.0,0.,12.0
1979-07-14 21:40:27.350 ,5,0,0.,12.0,0.,12.0,0.,12.0,0.,12.0
1979-07-14 21:40:39.350 ,5,0,0.,12.0,0.,12.0,0.,12.0,0.,12.0
1979-07-14 21:40:51.350 ,6,1,0.,12.0,0.,12.0,0.,12.0,0.,12.0
1979-07-14 21:41:03.350 ,6,1,0.,12.0,0.,12.0,0.,12.0,0.,12.0
1979-07-14 21:41:15.350 ,6,0,1.,12.0,0.,12.0,0.,12.0,0.,12.0
1979-07-14 21:41:27.350 ,6,0,0.,12.0,0.,12.0,0.,12.0,0.,12.0
1979-07-14 21:41:39.350 ,7,1,0.,12.0,0.,12.0,0.,12.0,0.,12.0
1979-07-14 21:41:51.350 ,7,1,0.,12.0,0.,12.0,0.,12.0,0.,12.0
1979-07-14 21:42:03.350 ,7,0,0.,12.0,0.,12.0,0.,12.0,0.,12.0
1979-07-14 21:42:15.350 ,7,0,0.,12.0,0.,12.0,0.,12.0,0.,12.0
1979-07-14 21:42:27.350 ,7,1,0.,12.0,0.,12.0,0.,12.0,0.,12.0
1979-07-14 21:42:39.350 ,7,1,0.,12.0,0.,12.0,0.,12.0,0.,12.0
1979-07-14 21:42:51.350 ,7,0,0.,12.0,0.,12.0,0.,12.0,0.,12.0
1979-07-14 21:43:03.350 ,7,0,0.,12.0,0.,12.0,0.,12.0,0.,12.0
1979-07-14 21:43:15.350 ,6,1,0.,12.0,0.,12.0,0.,12.0,0.,12.0
1979-07-14 21:43:27.350 ,6,1,0.,12.0,0.,12.0,0.,12.0,0.,12.0
1979-07-14 21:43:39.350 ,6,0,0.,12.0,0.,12.0,0.,12.0,0.,12.0
1979-07-14 21:43:51.350 ,6,0,0.,12.0,0.,12.0,0.,12.0,1.,12.0
1979-07-14 21:44:03.350 ,5,1,0.,12.0,0.,12.0,0.,12.0,0.,12.0
1979-07-14 21:44:15.350 ,5,1,0.,12.0,0.,12.0,0.,12.0,0.,12.0
1979-07-14 21:44:27.350 ,5,0,0.,12.0,0.,12.0,0.,12.0,0.,12.0
1979-07-14 21:44:39.350 ,5,0,0.,12.0,0.,12.0,0.,12.0,0.,12.0
1979-07-14 21:44:51.350 ,4,1,0.,12.0,0.,12.0,0.,12.0,0.,12.0
1979-07-14 21:45:03.350 ,4,1,0.,12.0,0.,12.0,0.,12.0,0.,12.0
1979-07-14 21:45:15.350 ,4,0,0.,12.0,0.,12.0,0.,12.0,0.,12.0
1979-07-14 21:45:27.350 ,4,0,0.,12.0,0.,12.0,0.,12.0,0.,12.0
1979-07-14 21:45:39.350 ,3,1,0.,12.0,0.,12.0,0.,12.0,1.,12.0
1979-07-14 21:45:51.350 ,3,1,0.,12.0,0.,12.0,0.,12.0,0.,12.0
1979-07-14 21:46:03.350 ,3,0,0.,12.0,0.,12.0,0.,12.0,0.,12.0
1979-07-14 21:46:15.350 ,3,0,0.,12.0,0.,12.0,0.,12.0,0.,12.0
1979-07-14 21:46:27.350 ,2,1,0.,12.0,0.,12.0,0.,12.0,0.,12.0
1979-07-14 21:46:39.350 ,2,1,0.,12.0,0.,12.0,0.,12.0,0.,12.0
1979-07-14 21:46:51.350 ,2,0,0.,12.0,0.,12.0,0.,12.0,0.,12.0
1979-07-14 21:47:03.350 ,2,0,0.,12.0,0.,12.0,0.,12.0,0.,12.0
1979-07-14 21:47:15.350 ,1,1,1.,12.0,0.,12.0,0.,12.0,0.,12.0
1979-07-14 21:47:27.350 ,1,1,0.,12.0,0.,12.0,0.,12.0,0.,12.0
1979-07-14 21:47:39.350 ,1,0,0.,12.0,0.,12.0,0.,12.0,0.,12.0
1979-07-14 21:47:51.350 ,1,0,0.,12.0,0.,12.0,0.,12.0,0.,12.0
1979-07-14 21:48:03.350 ,0,1,0.,12.0,0.,12.0,0.,12.0,0.,12.0
1979-07-14 21:48:15.350 ,0,1,0.,12.0,0.,12.0,0.,12.0,0.,12.0
1979-07-14 21:48:27.350 ,0,0,0.,12.0,0.,12.0,0.,12.0,0.,12.0
1979-07-14 21:48:39.350 ,0,0,0.,12.0,0.,12.0,0.,12.0,0.,12.0
1979-07-14 21:48:51.350 ,0,1,1.,12.0,0.,12.0,0.,12.0,0.,12.0
1979-07-14 21:49:03.350 ,0,1,0.,12.0,0.,12.0,0.,12.0,0.,12.0
1979-07-14 21:49:15.350 ,0,0,0.,12.0,0.,12.0,0.,12.0,0.,12.0
1979-07-14 21:49:27.350 ,0,0,1.,12.0,0.,12.0,0.,12.0,1.,12.0
1979-07-14 21:49:39.350 ,1,1,0.,12.0,0.,12.0,0.,12.0,0.,12.0
1979-07-14 21:49:51.350 ,1,1,0.,12.0,0.,12.0,0.,12.0,0.,12.0
1979-07-14 21:50:03.350 ,1,0,0.,12.0,0.,12.0,0.,12.0,0.,12.0
1979-07-14 21:50:15.350 ,1,0,0.,12.0,0.,12.0,0.,12.0,0.,12.0
1979-07-14 21:50:27.350 ,2,1,0.,12.0,0.,12.0,0.,12.0,0.,12.0
1979-07-14 21:50:39.350 ,2,1,0.,12.0,0.,12.0,0.,12.0,0.,12.0
1979-07-14 21:50:51.350 ,2,0,0.,12.0,0.,12.0,0.,12.0,0.,12.0
1979-07-14 21:51:03.350 ,2,0,0.,12.0,0.,12.0,0.,12.0,1.,12.0
1979-07-14 21:51:15.350 ,3,1,0.,12.0,0.,12.0,0.,12.0,0.,12.0
1979-07-14 21:51:27.350 ,3,1,0.,12.0,0.,12.0,0.,12.0,0.,12.0
1979-07-14 21:51:39.350 ,3,0,0.,12.0,0.,12.0,0.,12.0,0.,12.0
1979-07-14 21:51:51.350 ,3,0,0.,12.0,0.,12.0,0.,12.0,0.,12.0
1979-07-14 21:52:03.350 ,4,1,0.,12.0,0.,12.0,0.,12.0,0.,12.0
1979-07-14 21:52:15.350 ,4,1,1.,12.0,0.,12.0,0.,12.0,0.,12.0
1979-07-14 21:52:27.350 ,4,0,0.,12.0,0.,12.0,0.,12.0,0.,12.0
1979-07-14 21:52:39.350 ,4,0,0.,12.0,0.,12.0,0.,12.0,0.,12.0
1979-07-14 21:52:51.350 ,5,1,0.,12.0,0.,12.0,0.,12.0,0.,12.0
1979-07-14 21:53:03.350 ,5,1,0.,12.0,0.,12.0,0.,12.0,0.,12.0
1979-07-14 21:53:15.350 ,5,0,0.,12.0,0.,12.0,0.,12.0,0.,12.0
1979-07-14 21:53:27.350 ,5,0,0.,12.0,0.,12.0,0.,12.0,0.,12.0
1979-07-14 21:53:39.350 ,6,1,0.,12.0,0.,12.0,0.,12.0,0.,12.0
1979-07-14 21:53:51.350 ,6,1,0.,12.0,0.,12.0,0.,12.0,0.,12.0
1979-07-14 21:54:03.350 ,6,0,0.,12.0,0.,12.0,0.,12.0,0.,12.0
1979-07-14 21:54:15.350 ,6,0,0.,12.0,0.,12.0,0.,12.0,0.,12.0
1979-07-14 21:54:27.350 ,7,1,0.,12.0,0.,12.0,0.,12.0,0.,12.0
1979-07-14 21:54:39.350 ,7,1,0.,12.0,0.,12.0,0.,12.0,0.,12.0
1979-07-14 21:54:51.350 ,7,0,0.,12.0,0.,12.0,0.,12.0,0.,12.0
1979-07-14 21:55:03.350 ,7,0,0.,12.0,0.,12.0,0.,12.0,0.,12.0
1979-07-14 21:55:15.350 ,7,1,0.,12.0,0.,12.0,0.,12.0,0.,12.0
1979-07-14 21:55:27.350 ,7,1,0.,12.0,0.,12.0,0.,12.0,0.,12.0
1979-07-14 21:55:39.350 ,7,0,0.,12.0,0.,12.0,0.,12.0,0.,12.0
1979-07-14 21:55:51.350 ,7,0,0.,12.0,0.,12.0,0.,12.0,0.,12.0
1979-07-14 21:56:03.350 ,6,1,0.,12.0,0.,12.0,0.,12.0,0.,12.0
1979-07-14 21:56:15.350 ,6,1,0.,12.0,0.,12.0,0.,12.0,0.,12.0
1979-07-14 21:56:27.350 ,6,0,0.,12.0,0.,12.0,0.,12.0,0.,12.0
1979-07-14 21:56:39.350 ,6,0,0.,12.0,0.,12.0,0.,12.0,0.,12.0
1979-07-14 21:56:51.350 ,5,1,0.,12.0,0.,12.0,0.,12.0,0.,12.0
1979-07-14 21:57:03.350 ,5,1,1.,12.0,0.,12.0,0.,12.0,0.,12.0
1979-07-14 21:57:15.350 ,5,0,0.,12.0,0.,12.0,0.,12.0,0.,12.0
1979-07-14 21:57:27.350 ,5,0,0.,12.0,0.,12.0,0.,12.0,0.,12.0
1979-07-14 21:57:39.350 ,4,1,0.,12.0,0.,12.0,0.,12.0,0.,12.0
1979-07-14 21:57:51.350 ,4,1,0.,12.0,0.,12.0,0.,12.0,0.,12.0
1979-07-14 21:58:03.350 ,4,0,0.,12.0,0.,12.0,0.,12.0,0.,12.0
1979-07-14 21:58:15.350 ,4,0,0.,12.0,0.,12.0,0.,12.0,0.,12.0
1979-07-14 21:58:27.350 ,3,1,0.,12.0,0.,12.0,0.,12.0,0.,12.0
1979-07-14 21:58:39.350 ,3,1,0.,12.0,0.,12.0,0.,12.0,0.,12.0
1979-07-14 21:58:51.350 ,3,0,0.,12.0,0.,12.0,0.,12.0,0.,12.0
1979-07-14 21:59:03.350 ,3,0,0.,12.0,0.,12.0,0.,12.0,0.,12.0
1979-07-14 21:59:15.350 ,2,1,0.,12.0,0.,12.0,0.,12.0,0.,12.0
1979-07-14 21:59:27.350 ,2,1,0.,12.0,0.,12.0,0.,12.0,0.,12.0
1979-07-14 21:59:39.350 ,2,0,0.,12.0,0.,12.0,0.,12.0,0.,12.0
1979-07-14 21:59:51.350 ,2,0,0.,12.0,0.,12.0,0.,12.0,0.,12.0
1979-07-14 22:00:03.350 ,1,1,1.,12.0,0.,12.0,0.,12.0,0.,12.0
1979-07-14 22:00:15.350 ,1,1,0.,12.0,0.,12.0,0.,12.0,0.,12.0
1979-07-14 22:00:27.350 ,1,0,0.,12.0,0.,12.0,0.,12.0,0.,12.0
1979-07-14 22:00:39.350 ,1,0,0.,12.0,0.,12.0,0.,12.0,0.,12.0
1979-07-14 22:00:51.350 ,0,1,0.,12.0,0.,12.0,0.,12.0,0.,12.0
1979-07-14 22:01:03.350 ,0,1,0.,12.0,0.,12.0,0.,12.0,0.,12.0
1979-07-14 22:01:15.350 ,0,0,0.,12.0,0.,12.0,0.,12.0,0.,12.0
1979-07-14 22:01:27.350 ,0,0,0.,12.0,0.,12.0,0.,12.0,0.,12.0
1979-07-14 22:01:39.350 ,0,1,0.,12.0,0.,12.0,0.,12.0,0.,12.0
1979-07-14 22:01:51.350 ,0,1,0.,12.0,0.,12.0,0.,12.0,0.,12.0
1979-07-14 22:02:03.350 ,0,0,0.,12.0,0.,12.0,0.,12.0,0.,12.0
1979-07-14 22:02:15.350 ,0,0,0.,12.0,0.,12.0,0.,12.0,0.,12.0
1979-07-14 22:02:27.350 ,1,1,0.,12.0,0.,12.0,0.,12.0,0.,12.0
1979-07-14 22:02:39.350 ,1,1,0.,12.0,0.,12.0,0.,12.0,0.,12.0
1979-07-14 22:02:51.350 ,1,0,1.,12.0,0.,12.0,0.,12.0,0.,12.0
1979-07-14 22:03:03.350 ,1,0,0.,12.0,0.,12.0,0.,12.0,0.,12.0
1979-07-14 22:03:15.350 ,2,1,0.,12.0,0.,12.0,0.,12.0,0.,12.0
1979-07-14 22:03:27.350 ,2,1,0.,12.0,0.,12.0,0.,12.0,0.,12.0
1979-07-14 22:03:39.350 ,2,0,0.,12.0,0.,12.0,0.,12.0,0.,12.0
1979-07-14 22:03:51.350 ,2,0,0.,12.0,0.,12.0,0.,12.0,0.,12.0
1979-07-14 22:04:03.350 ,3,1,0.,12.0,0.,12.0,0.,12.0,0.,12.0
1979-07-14 22:04:15.350 ,3,1,0.,12.0,0.,12.0,0.,12.0,0.,12.0
1979-07-14 22:04:27.350 ,3,0,0.,12.0,0.,12.0,0.,12.0,0.,12.0
1979-07-14 22:04:39.350 ,3,0,0.,12.0,0.,12.0,0.,12.0,0.,12.0
1979-07-14 22:04:51.350 ,4,1,0.,12.0,0.,12.0,0.,12.0,0.,12.0
1979-07-14 22:05:03.350 ,4,1,0.,12.0,0.,12.0,0.,12.0,0.,12.0
1979-07-14 22:05:15.350 ,4,0,0.,12.0,0.,12.0,0.,12.0,0.,12.0
1979-07-14 22:05:27.350 ,4,0,1.,12.0,0.,12.0,0.,12.0,0.,12.0
1979-07-14 22:05:39.350 ,5,1,0.,12.0,0.,12.0,0.,12.0,0.,12.0
1979-07-14 22:05:51.350 ,5,1,0.,12.0,0.,12.0,0.,12.0,0.,12.0
1979-07-14 22:06:03.350 ,5,0,0.,12.0,0.,12.0,0.,12.0,0.,12.0
1979-07-14 22:06:15.350 ,5,0,0.,12.0,0.,12.0,0.,12.0,0.,12.0
1979-07-14 22:06:27.350 ,6,1,0.,12.0,0.,12.0,0.,12.0,0.,12.0
1979-07-14 22:06:39.350 ,6,1,0.,12.0,0.,12.0,0.,12.0,0.,12.0
1979-07-14 22:06:51.350 ,6,0,1.,12.0,0.,12.0,0.,12.0,0.,12.0
1979-07-14 22:07:03.350 ,6,0,0.,12.0,0.,12.0,0.,12.0,0.,12.0
1979-07-14 22:07:15.350 ,7,1,0.,12.0,0.,12.0,0.,12.0,0.,12.0
1979-07-14 22:07:27.350 ,7,1,0.,12.0,0.,12.0,0.,12.0,0.,12.0
1979-07-14 22:07:39.350 ,7,0,0.,12.0,0.,12.0,0.,12.0,0.,12.0
1979-07-14 22:07:51.350 ,7,0,0.,12.0,0.,12.0,0.,12.0,0.,12.0
1979-07-14 22:08:03.350 ,7,1,0.,12.0,0.,12.0,0.,12.0,0.,12.0
1979-07-14 22:08:15.350 ,7,1,0.,12.0,0.,12.0,0.,12.0,0.,12.0
1979-07-14 22:08:27.350 ,7,0,0.,12.0,0.,12.0,0.,12.0,0.,12.0
1979-07-14 22:08:39.350 ,7,0,0.,12.0,0.,12.0,0.,12.0,0.,12.0
1979-07-14 22:08:51.350 ,6,1,0.,12.0,0.,12.0,0.,12.0,0.,12.0
1979-07-14 22:09:03.350 ,6,1,0.,12.0,0.,12.0,0.,12.0,0.,12.0
1979-07-14 22:09:15.350 ,6,0,0.,12.0,0.,12.0,0.,12.0,0.,12.0
1979-07-14 22:09:27.350 ,6,0,0.,12.0,0.,12.0,0.,12.0,0.,12.0
1979-07-14 22:09:39.350 ,5,1,0.,12.0,0.,12.0,0.,12.0,0.,12.0
1979-07-14 22:09:51.350 ,5,1,0.,12.0,0.,12.0,0.,12.0,0.,12.0
1979-07-14 22:10:03.350 ,5,0,0.,12.0,0.,12.0,0.,12.0,0.,12.0
1979-07-14 22:10:15.350 ,5,0,0.,12.0,0.,12.0,0.,12.0,0.,12.0
1979-07-14 22:10:27.350 ,4,1,0.,12.0,0.,12.0,0.,12.0,0.,12.0
1979-07-14 22:10:39.350 ,4,1,0.,12.0,0.,12.0,0.,12.0,0.,12.0
1979-07-14 22:10:51.350 ,4,0,0.,12.0,0.,12.0,0.,12.0,0.,12.0
1979-07-14 22:11:03.350 ,4,0,0.,12.0,0.,12.0,0.,12.0,0.,12.0
1979-07-14 22:11:15.350 ,3,1,0.,12.0,0.,12.0,0.,12.0,0.,12.0
1979-07-14 22:11:27.350 ,3,1,0.,12.0,0.,12.0,0.,12.0,0.,12.0
1979-07-14 22:11:39.350 ,3,0,0.,12.0,0.,12.0,0.,12.0,0.,12.0
1979-07-14 22:11:51.350 ,3,0,0.,12.0,0.,12.0,0.,12.0,0.,12.0
1979-07-14 22:12:03.350 ,2,1,0.,12.0,0.,12.0,0.,12.0,0.,12.0
1979-07-14 22:12:15.350 ,2,1,0.,12.0,0.,12.0,0.,12.0,0.,12.0
1979-07-14 22:12:27.350 ,2,0,0.,12.0,0.,12.0,0.,12.0,0.,12.0
1979-07-14 22:12:39.350 ,2,0,0.,12.0,0.,12.0,0.,12.0,0.,12.0
1979-07-14 22:12:51.350 ,1,1,0.,12.0,0.,12.0,0.,12.0,0.,12.0
1979-07-14 22:13:03.350 ,1,1,0.,12.0,0.,12.0,0.,12.0,0.,12.0
1979-07-14 22:13:15.350 ,1,0,0.,12.0,0.,12.0,0.,12.0,0.,12.0
1979-07-14 22:13:27.350 ,1,0,0.,12.0,0.,12.0,0.,12.0,0.,12.0
1979-07-14 22:13:39.350 ,0,1,0.,12.0,0.,12.0,0.,12.0,0.,12.0
1979-07-14 22:13:51.350 ,0,1,0.,12.0,0.,12.0,0.,12.0,0.,12.0
1979-07-14 22:14:03.350 ,0,0,0.,12.0,0.,12.0,0.,12.0,0.,12.0
1979-07-14 22:14:15.350 ,0,0,0.,12.0,0.,12.0,0.,12.0,0.,12.0
1979-07-14 22:14:27.350 ,0,1,0.,12.0,0.,12.0,0.,12.0,0.,12.0
1979-07-14 22:14:39.350 ,0,1,0.,12.0,0.,12.0,0.,12.0,0.,12.0
1979-07-14 22:14:51.350 ,0,0,0.,12.0,0.,12.0,0.,12.0,0.,12.0
1979-07-14 22:15:03.350 ,0,0,0.,12.0,0.,12.0,0.,12.0,0.,12.0
1979-07-14 22:15:15.350 ,1,1,0.,12.0,0.,12.0,0.,12.0,0.,12.0
1979-07-14 22:15:27.350 ,1,1,0.,12.0,0.,12.0,0.,12.0,0.,12.0
1979-07-14 22:15:39.350 ,1,0,0.,12.0,0.,12.0,0.,12.0,0.,12.0
1979-07-14 22:15:51.350 ,1,0,0.,12.0,0.,12.0,0.,12.0,0.,12.0
1979-07-14 22:16:03.350 ,2,1,0.,12.0,0.,12.0,0.,12.0,0.,12.0
1979-07-14 22:16:15.350 ,2,1,0.,12.0,0.,12.0,0.,12.0,0.,12.0
1979-07-14 22:16:27.350 ,2,0,0.,12.0,0.,12.0,0.,12.0,0.,12.0
1979-07-14 22:16:39.350 ,2,0,0.,12.0,0.,12.0,0.,12.0,0.,12.0
1979-07-14 22:16:51.350 ,3,1,0.,12.0,0.,12.0,0.,12.0,0.,12.0
1979-07-14 22:17:03.350 ,3,1,0.,12.0,0.,12.0,0.,12.0,0.,12.0
1979-07-14 22:17:15.350 ,3,0,0.,12.0,0.,12.0,0.,12.0,0.,12.0
1979-07-14 22:17:27.350 ,3,0,0.,12.0,0.,12.0,0.,12.0,0.,12.0
1979-07-14 22:17:39.350 ,4,1,0.,12.0,0.,12.0,0.,12.0,0.,12.0
1979-07-14 22:17:51.350 ,4,1,0.,12.0,0.,12.0,0.,12.0,0.,12.0
1979-07-14 22:18:03.350 ,4,0,0.,12.0,0.,12.0,0.,12.0,0.,12.0
1979-07-14 22:18:15.350 ,4,0,0.,12.0,0.,12.0,0.,12.0,0.,12.0
1979-07-14 22:19:15.350 ,0,0,1.,12.0,0.,12.0,0.,12.0,0.,12.0
1979-07-14 22:19:27.350 ,0,0,0.,12.0,0.,12.0,0.,12.0,0.,12.0
1979-07-14 22:19:39.350 ,0,0,0.,12.0,0.,12.0,0.,12.0,0.,12.0
1979-07-14 22:19:51.350 ,0,0,0.,12.0,0.,12.0,0.,12.0,0.,12.0